COSMOS 2361 1 25590U 98076A 10067.68286833 +.00000034 +00000-0 +20428-4 0 02876 2 25590 082.9296 279.6660 0033088 069.9312 290.5393 13.72715684561318 COSMOS 2378 1 26818U 01023A 10065.56402144 .00000066 00000-0 54304-4 0 2714 2 26818 082.9283 307.6340 0034308 042.3961 317.9836 13.73741997438356 COSMOS 2389 1 27436U 02026A 10066.07876934 .00000018 00000-0 39712-5 0 97 2 27436 082.9442 248.1720 0045200 289.3259 070.3017 13.74739640390099 COSMOS 2398 1 27818U 03023A 10065.48190710 -.00000003 00000-0 -19835-4 0 8585 2 27818 082.9480 195.6920 0029863 266.5683 093.2062 13.71962082338213 COSMOS 2407 1 28380U 04028A 10065.82791841 .00000044 00000-0 29906-4 0 6789 2 28380 082.9630 156.4960 0038386 319.2365 040.5925 13.75850615282300 COSMOS 2414 1 28521U 05002A 10067.78190424 +.00000093 +00000-0 +65826-4 0 06073 2 28521 082.9471 217.1689 0040334 353.7820 006.2843 13.87355735259788 COSMOS 2429 1 32052U 07038A 10066.15811921 -.00000033 00000-0 -50576-4 0 7860 2 32052 082.9763 266.2850 0037075 275.0718 084.6206 13.74700404124698